パンスターズ彗星

455P/PanSTARRS (2017)

English version
Home page
Updated on February 8, 2023

---------------------------------------------------------------------

・ プロフィール

符号 455P/2017 S9
発見日 2017年9月30日
発見光度 22.0等
発見者 Pan-STARRS 1 telescope (Haleakala)

・ 写真集

・ 軌道要素

                    Epoch = 2017 July 26.0 TT
     T = 2017 July 23.63636 TT        Peri. = 237.93077
     e = 0.3042585                    Node  = 146.20988 2000.0
     q = 2.1952030 AU                 Incl. =  14.13755
       a =  3.1551991 AU   n = 0.17585872   P =   5.60 years

・ 光度変化

        m1 = 16.5 + 5 logΔ + 10.0 log r

---------------------------------------------------------------------

軌道要素は、CBET 5200に掲載されたものです。
光度グラフはComet for Windowsで作成したものです。

---------------------------------------------------------------------

Copyright(C) Seiichi Yoshida (comet@aerith.net). All rights reserved.